sat.trackr.live / text

‹ back to catalog

STARLINK-35668

NORAD 66401 · 2025-257X

PAYLOAD ACTIVE UNKNOWN

§ Identity

Operator
Country
US
Launch date
2025-11-09
Launch site
AFETR
Launch vehicle
Mass (kg)
RCS (m²)

Purposes: comms

External: N2YO · Heavens-Above · Gunter

§ Orbital elements

Epoch: 2026-05-24T21:46:33.401856Z

Period
93.85 min
Inclination
53.1567°
Eccentricity
0.0000989
Mean motion
15.34396634 rev/d
Perigee alt
462.0 km
Apogee alt
463.4 km
Semi-major
6,840.9 km
B*
6.1963e-4
RAAN
222.2230°
Arg perigee
67.3828°
Mean anomaly
292.7279°
Rev number
3,141

§ Raw data

STARLINK-356681 66401U 25257X   26144.90733104  .00020614  00000+0  61963-3 0  99922 66401  53.1567 222.2230 0000989  67.3828 292.7279 15.34396634 31410

JSON: /api/v1/satellites/66401 · /tle

For live sub-satellite position, see the globe view (requires WebGL).

§ Visibility from observer

Set your observer location to see the next 7 days of passes ≥ 10°. The values pass through the URL so the page stays shareable.

No JS? Fill the form by hand. The geolocation button needs JavaScript.